Meteo Giornale » Osservazioni meteo Stati Uniti (USA) » Indianapolis Eagle Creek Airpark

ore: 15:53 - Osservazioni Meteo Indianapolis Eagle Creek Airpark
Lat. 39° 49' N Lon. 86° 17' W Alt. 250 metri s.l.m.

sereno

34 °C

Sereno

Temp. 24 Ore

23 °C

34 °C

Nord

7.4 Km/h

Dew point 22 °C

Umidità 49 %

Visibilità  10 Km

Il sole sorge alle ore 07:13

Il sole tramonta alle ore 20:16

Data e Ora Cielo e Fenomeni T °C DP °C Um. % Pres. hPa Vis. km Vento km/h
Oggi h: 15:53 sereno Sereno 34 22 49 1017 10 N 7.4
Oggi h: 14:53 sereno Sereno 34 22 49 1017 10 O/SO 16.7
Oggi h: 13:53 sereno Sereno 33 21 49 1017 10 O/SO 9.3
Oggi h: 12:53 sereno Sereno 33 21 49 1018 10 N 9.3
Oggi h: 11:53 sereno Sereno 31 22 58 1018 10 N 9.3
Oggi h: 10:53 sereno Sereno 29 22 66 1018 10 SO 9.3
Oggi h: 09:53 sereno Sereno 27 22 74 1018 10 N 9.3
Oggi h: 08:53 sereno Sereno 26 21 73 1019 10 N 7.4
Oggi h: 07:53 sereno Sereno 24 21 83 1018 10 SO 7.4
Oggi h: 06:53 sereno Sereno 23 21 88 1017 10 N 5.5
Oggi h: 05:53 sereno Sereno 24 21 83 1017 10 N 5.5
Oggi h: 04:53 sereno Sereno 24 21 83 1017 10 SO 7.4
Oggi h: 03:53 sereno Sereno 25 21 78 1017 10 O/SO 7.4
Oggi h: 02:53 sereno Sereno 26 21 73 1017 10 N 7.4
Oggi h: 01:53 sereno Sereno 26 21 73 1017 10 SO 7.4
Oggi h: 00:53 sereno Sereno 26 22 78 1017 10 S/SO 7.4
Ieri h: 23:53 sereno Sereno 26 23 83 1017 10 N 0
Ieri h: 22:53 sereno Sereno 27 23 78 1017 10 N 0
Ieri h: 21:53 sereno Sereno 28 23 74 1017 10 N 0
Ieri h: 20:53 sereno Sereno 29 22 66 1017 10 N 0
Ieri h: 19:53 sereno Sereno 31 21 55 1016 10 S/SO 9.3
Ieri h: 18:53 sereno Sereno 32 21 52 1017 10 SO 13
Ieri h: 17:53 sereno Sereno 33 21 49 1017 10 SO 13
Ieri h: 16:53 sereno Sereno 33 21 49 1017 10 O/SO 11.1